Location: Oriwa
(40.7500°S, 175.3333°E)
Time: 09:29:48
(UTC+00:00)

Cosmos 1680 Rocket - Pass Details

Date: 03 February 2023
Orbit: 759 x 780 km, 74.1° (Epoch: 19 March)

Event Time Altitude Azimuth Distance (km) Brightness Sun altitude
Exits shadow 14:18:55 47° 235° (SW) 1,045 4.1 -27.7°
Drops below altitude 10° 14:23:49 10° 172° (S) 2,369 6.9 -27.2°
Sets 14:26:20 0° 166° (SSE) 3,305 7.9 -27.0°
